This demonstration page uses our WeatherBlox Daily Observations layout. Learn more.

Left ArrowRight Arrow

Hourly Observations for October 20, 2021

Temp ( °F °C ) Dew Point ( °F °C ) Humidity (%) Winds ( mph kmh ) Pressure ( in mb ) Visibility ( mi km ) Precip ( " mm )
12:30 am 00:30 Cloudy with Light Rain 52 11.1 49 9.4 89 89 SSW 8 13 29.95 1014 5 8 0.08 2.03
12:42 am 00:42 Cloudy with Rain 52 11.1 49 9.4 89 89 S 10 17 29.95 1014 3 5 0.11 2.79
12:53 am 00:53 Cloudy with Light Rain 51 10.6 48 8.9 89 89 S 9 15 29.93 1014 5 8 0.13 3.30
1:20 am 01:20 Cloudy with Light Rain 51 10.6 48 8.9 89 89 SSE 17 28 29.94 1014 5 8 0.03 0.76
1:45 am 01:45 Cloudy 50 10 47 8.3 89 89 SE 18 30 29.94 1014 10 16 0.03 0.76
1:53 am 01:53 Cloudy 50 10 47 8.3 89 89 SE 16 26 29.91 1013 10 16 0.03 0.76
2:03 am 02:03 Cloudy 50 10 47 8.3 89 89 SSE 14 22 29.94 1014 10 16 N/A
2:12 am 02:12 Cloudy 50 10 47 8.3 89 89 S 15 24 29.95 1014 10 16 N/A
2:53 am 02:53 Cloudy 51 10.6 48 8.9 89 89 SW 10 17 29.96 1015 10 16 N/A
3:53 am 03:53 Cloudy with Light Rain 52 11.1 48 8.9 86 86 SSW 13 20 29.96 1015 5 8 0.02 0.51
4:20 am 04:20 Cloudy 52 11.1 48 8.9 86 86 SSW 10 17 29.99 1015 10 16 0.00 0.00
4:53 am 04:53 Cloudy with Light Rain 51 10.6 48 8.9 89 89 SSW 10 17 29.98 1015 8 13 0.01 0.25
5:48 am 05:48 Cloudy 52 11 48 9 88 88 SSW 10 17 30.02 1016 10 16 0.00 0.00
5:53 am 05:53 Cloudy 52 11.1 48 8.9 86 86 SSW 14 22 30.01 1016 10 16 0.00 0.00
6:00 am 06:00 Cloudy 52 11.1 48 8.9 86 86 SSW 16 26 30.02 1016 10 16 N/A
6:10 am 06:10 Cloudy 52 11.1 48 8.9 86 86 SSW 16 26 30.03 1017 10 16 N/A
6:23 am 06:23 Cloudy 52 11.1 48 8.9 86 86 SSW 13 20 30.03 1017 10 16 N/A
6:53 am 06:53 Cloudy 52 11.1 48 8.9 86 86 S 14 22 30.03 1017 10 16 N/A
7:53 am 07:53 Cloudy 52 11.1 49 9.4 89 89 S 15 24 30.05 1018 6 10 N/A
8:06 am 08:06 Cloudy 52 11.1 50 10 93 93 S 13 20 30.07 1018 4 6 N/A
8:17 am 08:17 Cloudy 52 11.1 50 10 93 93 SSW 14 22 30.08 1018 3 4 N/A
8:33 am 08:33 Cloudy 52 11.1 50 10 93 93 S 14 22 30.08 1018 3 5 N/A
8:53 am 08:53 Cloudy 52 11.1 50 10 93 93 SSW 12 19 30.07 1018 3 5 N/A
9:33 am 09:33 Cloudy 53 11.7 50 10 89 89 SSW 13 20 30.09 1019 10 16 N/A
9:53 am 09:53 Cloudy 53 11.7 51 10.6 93 93 S 12 19 30.08 1019 5 8 N/A
10:00 am 10:00 Cloudy 53 11.7 51 10.6 93 93 S 12 19 30.09 1019 3 5 N/A
10:18 am 10:18 Cloudy 53 11.7 51 10.6 93 93 SSW 8 13 30.09 1019 3 5 N/A
10:25 am 10:25 Cloudy 53 11.7 51 10.6 93 93 SSW 5 7 30.10 1019 3 4 N/A
10:40 am 10:40 Cloudy 53 11.7 52 11.1 96 96 SW 6 9 30.10 1019 4 6 N/A
10:53 am 10:53 Cloudy 54 12.2 52 11.1 93 93 SW 7 11 30.10 1019 9 14 N/A
11:40 am 11:40 Cloudy 54 12.2 52 11.1 93 93 SW 6 9 30.10 1019 3 4 N/A
11:53 am 11:53 Cloudy 54 12.2 52 11.1 93 93 SW 6 9 30.10 1019 3 4 N/A
12:05 pm 12:05 Cloudy 54 12.2 52 11.1 93 93 SW 5 7 30.10 1019 5 8 N/A
12:53 pm 12:53 Cloudy 54 12.2 52 11.1 93 93 SW 5 7 30.09 1019 4 6 N/A
12:59 pm 12:59 Cloudy with Light Rain 54 12.2 52 11.1 93 93 WSW 5 7 30.10 1019 2 3 0.00 0.00
1:40 pm 13:40 Cloudy 54 12.2 52 11.1 93 93 W 3 6 30.09 1019 2 3 0.02 0.51
1:45 pm 13:45 Cloudy 54 12.2 52 11.1 93 93 N N/A 30.10 1019 2 2 0.02 0.51
1:53 pm 13:53 Cloudy 54 12.2 52 11.1 93 93 N N/A 30.09 1019 1 2 0.02 0.51
2:04 pm 14:04 Cloudy 54 12.2 52 11.1 93 93 NW 5 7 30.10 1019 2 2 N/A
2:14 pm 14:14 Cloudy 54 12.2 52 11.1 93 93 undefined N/A 30.10 1019 2 2 N/A
2:33 pm 14:33 Cloudy 54 12.2 52 11.1 93 93 N N/A 30.10 1019 1 2 N/A
2:41 pm 14:41 Cloudy 54 12.2 53 11.7 97 97 W 3 6 30.10 1019 1 2 N/A
2:51 pm 14:51 Cloudy 54 12 54 12 100 100 N N/A 30.10 1019 2 2 N/A
2:53 pm 14:53 Cloudy 54 12.2 53 11.7 97 97 N N/A 30.10 1019 2 2 N/A
2:57 pm 14:57 Cloudy 54 12.2 53 11.7 97 97 W 3 6 30.10 1019 2 3 N/A
3:23 pm 15:23 Cloudy 54 12.2 53 11.7 97 97 WNW 5 7 30.10 1019 3 5 N/A
3:53 pm 15:53 Cloudy 54 12.2 52 11.1 93 93 VRB 3 6 30.08 1019 3 5 N/A
4:00 pm 16:00 Cloudy 54 12.2 52 11.1 93 93 NW 3 6 30.09 1019 3 4 N/A
4:18 pm 16:18 Cloudy 54 12.2 52 11.1 93 93 N N/A 30.09 1019 2 3 0.01 0.25
4:35 pm 16:35 Cloudy 54 12.2 52 11.1 93 93 NNW 5 7 30.09 1019 3 4 0.02 0.51
4:53 pm 16:53 Cloudy with Light Rain 54 12.2 52 11.1 93 93 NNW 5 7 30.08 1019 2 3 0.02 0.51
5:23 pm 17:23 Cloudy with Light Rain 54 12.2 52 11.1 93 93 N 3 6 30.09 1019 1 2 0.02 0.51
5:32 pm 17:32 Cloudy with Light Rain 54 12.2 53 11.7 97 97 N N/A 30.09 1019 1 2 0.03 0.76
5:53 pm 17:53 Cloudy with Light Rain 54 12.2 53 11.7 97 97 E 3 6 30.09 1019 1 2 0.05 1.27
6:05 pm 18:05 Cloudy with Light Rain 54 12.2 53 11.7 97 97 E 3 6 30.09 1019 2 2 0.01 0.25
6:29 pm 18:29 Cloudy with Light Rain 54 12.2 53 11.7 97 97 ENE 6 9 30.08 1019 3 4 0.03 0.76
6:32 pm 18:32 Cloudy with Light Rain 54 12.2 52 11.1 93 93 E 5 7 30.09 1019 3 5 0.04 1.02
6:53 pm 18:53 Cloudy 54 12.2 53 11.7 97 97 NNE 3 6 30.08 1019 6 10 0.04 1.02
7:53 pm 19:53 Cloudy 54 12.2 53 11.7 97 97 N 6 9 30.09 1019 8 13 0.01 0.25
8:03 pm 20:03 Cloudy 54 12.2 53 11.7 97 97 N 6 9 30.10 1019 10 16 N/A
8:11 pm 20:11 Cloudy 54 12.2 53 11.7 97 97 N 7 11 30.10 1019 10 16 N/A
8:53 pm 20:53 Cloudy 55 12.8 53 11.7 93 93 N 7 11 30.09 1019 10 16 N/A
9:19 pm 21:19 Cloudy 55 12.8 53 11.7 93 93 N 7 11 30.09 1019 10 16 N/A
9:53 pm 21:53 Cloudy 55 12.8 53 11.7 93 93 N 5 7 30.09 1019 10 16 N/A
10:00 pm 22:00 Cloudy 55 12.8 53 11.7 93 93 N 3 6 30.10 1019 10 16 N/A
10:36 pm 22:36 Cloudy 55 12.8 53 11.7 93 93 N 3 6 30.10 1019 10 16 N/A
10:53 pm 22:53 Cloudy 55 12.8 53 11.7 93 93 N N/A 30.09 1019 10 16 N/A
11:53 pm 23:53 Cloudy with Light Rain 55 12.8 53 11.7 93 93 N N/A 30.09 1019 6 10 0.00 0.00

Powered by AerisWeather